Tracking 30743 objects as of 25-Jun-2025
HD Live streaming from Space Station
objects crossing your sky now

COSMOS 1823 DEB

Track COSMOS 1823 DEB now!
10-day predictions


NORAD ID: 29359
Int'l Code: 1987-020EA
Perigee: 1,486.0 km
Apogee: 1,532.0 km
Inclination: 73.6 °
Period: 116.0 minutes
Semi major axis: 7879 km
RCS: 0.0053 m2 (small)
Launch date: February 20, 1987
Source: Commonwealth of Independent States (former USSR) (CIS)
Launch site: PLESETSK MISSILE AND SPACE COMPLEX (PKMTR)

Note: This is SATELLITE DEBRIS
Your satellite tracking list
Your tracking list is empty




NASA's NSSDC Master Catalog

Two Line Element Set (TLE):
1 29359U 87020EA  25175.76319976 -.00000005  00000-0  89256-4 0  9993
2 29359  73.6125 183.7087 0029209  25.2915 156.6175 12.41123826484528
Source of the keplerian elements: AFSPC